Regional Weather Roundup
Issued by NWS Boston, MA

Home | Current Version | Previous Version | Text Only | Print | Product List | Glossary On
Versions: 1 2 3 4 5 6 7 8 9 10 11 12 13 14 15 16 17 18 19 20 21 22 23 24 25 26 27
000
ASUS41 KBOX 291510
RWRBOX

REGIONAL WEATHER ROUNDUP
NATIONAL WEATHER SERVICE TAUNTON MA
1100 AM EDT WED MAR 29 2017

NOTE:  "FAIR" INDICATES FEW OR NO CLOUDS BELOW 12,000 FEET WITH NO
SIGNIFICANT WEATHER AND/OR OBSTRUCTIONS TO VISIBILITY.

MAZALL-291600-
EASTERN MASSACHUSETTS

CITY           SKY/WX    TMP DP  RH WIND       PRES   REMARKS
BOSTON         CLOUDY    41  38  89 N12       30.04R
BEVERLY        CLOUDY    41  39  93 N7        30.03R
LAWRENCE       CLOUDY    39  37  92 N6        30.05S
BEDFORD        CLOUDY    42  34  73 NW16      30.02S
BLUE HILL        N/A     37  37 100 N8        29.99S WCI  31
NORWOOD        CLOUDY    42  39  89 N7        30.03S FOG
MARSHFIELD     CLOUDY    41  37  87 VRB7G20   30.01S
PLYMOUTH       CLOUDY    41  35  79 N15G26    30.00S
TAUNTON        CLOUDY    42  37  82 NW8       30.01S
NEW BEDFORD    CLOUDY    42  37  82 N8        30.00R
$$

MAZALL-291600-
CAPE COD AND THE ISLANDS

CITY           SKY/WX    TMP DP  RH WIND       PRES   REMARKS
FALMOUTH       CLOUDY    39  37  93 MISG      29.99S
HYANNIS        CLOUDY    41  38  89 N15G23    29.95R
CHATHAM        CLOUDY    42  39  89 N9G18     29.98R
PROVINCETOWN   CLOUDY    40  37  89 N17       30.00R WCI  31
NANTUCKET      CLOUDY    42  38  85 N21G30    29.95R FOG
MARTHAS VNYRD  CLOUDY    45  39  79 N18G25    29.97R
$$

MAZALL-291600-
CENTRAL AND WESTERN MASSACHUSETTS

CITY           SKY/WX    TMP DP  RH WIND       PRES   REMARKS
WORCESTER      CLOUDY    41  30  65 N13G20    30.01R
FITCHBURG      CLOUDY    45  31  58 N8        30.03S
ORANGE         CLOUDY    42  31  64 N14G23    30.04S
SPRINGFIELD    PTSUNNY   47  31  54 NE15      30.04S
WESTFIELD      CLOUDY    46  33  60 NW13      30.05S
NORTH ADAMS    PTSUNNY   42  33  70 VRB7G17   30.08S
PITTSFIELD     PTSUNNY   40  30  67 NW13      30.05S
$$

RIZALL-291600-
RHODE ISLAND

CITY           SKY/WX    TMP DP  RH WIND       PRES   REMARKS
PROVIDENCE     CLOUDY    43  37  79 N17G24    30.02S
NEWPORT        CLOUDY    41  40  96 N13       30.00R
BLOCK ISLAND   CLOUDY    43  38  82 N9        30.02R
SMITHFIELD     CLOUDY    41  38  89 N13       30.02R
WESTERLY       CLOUDY    45  39  79 N12       30.02R
$$

CTZALL-291600-
CONNECTICUT

CITY           SKY/WX    TMP DP  RH WIND       PRES   REMARKS
BRADLEY INTL   PTSUNNY   47  33  58 N12       30.06S
HARTFORD       PTSUNNY   46  33  60 N9        30.06S
BRIDGEPORT     SUNNY     52  34  50 N15       30.05R
DANBURY        CLOUDY    43  36  76 N14G22    30.09R
GROTON         CLOUDY    47  36  65 N17       30.01S
NEW HAVEN      MOSUNNY   50  35  56 N18       30.04S
CHESTER        NOT AVBL
MERIDEN        MOSUNNY   50  34  54 N14G20    30.05S
WILLIMANTIC    CLOUDY    48  33  56 N12       30.04S
OXFORD         MOSUNNY   45  30  57 N12G18    30.06R
$$

MEZ002-015-021-024-NHZ003-005-008-011-012-014-VTZ005-008-291600-
NORTHERN NEW ENGLAND

CITY           SKY/WX    TMP DP  RH WIND       PRES   REMARKS
PORTLAND ME    CLOUDY    40  34  79 N8        30.03R
BANGOR ME      CLOUDY    36  30  79 N15       30.01R WCI  27
CONCORD NH     CLOUDY    44  32  62 NW14G21   30.03S
MANCHESTER NH  CLOUDY    43  31  62 N14       30.02F
NASHUA NH      CLOUDY    43  33  68 N7        30.04S
PORTSMOUTH NH  CLOUDY    42  35  78 N8        30.02S
JAFFREY NH     CLOUDY    41  30  65 NW8       30.03R
KEENE NH       CLOUDY    42  31  64 N15       30.06R
BURLINGTON VT  CLOUDY    38  28  67 N10       30.14S WCI  31
MT. WASHINGTON FOG       16  16 100 W31         N/A  VSB 0   WCI  -5
$$

NYZ052-076-291600-
EASTERN NEW YORK

CITY           SKY/WX    TMP DP  RH WIND       PRES   REMARKS
ALBANY         CLOUDY    40  35  83 N6        30.14R
NEW YORK CITY  PTSUNNY   49  36  61 NW9       30.08R
$$

ANZALL-291600-
MARINE OBSERVATIONS

STATION/POSITION TIME  TEMP    WIND        PRES    VSBY  WAVE
                       AIR SEA DIR/SP/G                  HT/PER
                 (UTC) (F)     (DEG/KT/KT) (MB)    (MI)  (FT/S)
BOSTON BUOY      1350   39 40  360/ 14/ 17 1015.7          4/ 8
BUZZARDS BAY     1400   39     360/ 17/ 19 1015.7R
NANTUCKET SOUND  1450      39              1014.4R         3/ 4
MASS BAY-STELLWA 1404   38 39  360/ 16/ 17 1015.1R         4/ 8
ISLE OF SHOALS   1500   39      10/ 10/ 11 1016.7R
S OF BLOCK IS    1455      40                N/A           4/ 4
$$

......................KEY.........................
  SKY/WX - SKY CONDITION/PRESENT WEATHER
  TMP    - TEMPERATURE IN FAHRENHEIT
  DWPT   - DEWPOINT IN FAHRENHEIT
  RH     - RELATIVE HUMIDITY IN PERCENT
  WIND   - DIRECTION AND SPEED IN MPH
  PRES   - MEAN SEA LEVEL PRESSURE IN INCHES OF HG
  WCI    - WIND CHILL INDEX
  VSB    - VISIBILITY IN MILES
  HX     - HEAT INDEX
  TC     - TEMPERATURE IN CELSIUS
  VRB    - VARIABLE WIND DIRECTION
  N/A    - NOT AVAILABLE




USA.gov is the U.S. government's official web portal to all federal, state and local government web resources and services.